Regional Weather Roundup
Issued by NWS Charleston, SC

Current Version | Previous Version | Graphics & Text | Print | Product List | Glossary On
Versions: 1 2 3 4 5 6 7 8 9 10 11 12 13 14 15 16 17 18 19 20 21 22 23 24 25 26 27 28 29 30 31 32 33 34 35 36 37 38 39 40 41 42 43 44 45 46 47 48 49 50
000 ASUS42 KCHS 161425 RWRCHS REGIONAL WEATHER ROUNDUP NATIONAL WEATHER SERVICE CHARLESTON SC 1000 AM EDT TUE SEP 16 2014 NOTE: "FAIR" INDICATES FEW OR NO CLOUDS BELOW 12,000 FEET WITH NO SIGNIFICANT WEATHER AND/OR OBSTRUCTIONS TO VISIBILITY. NOT ALL STATIONS ARE QUALITY CONTROLLED BY THE NATIONAL WEATHER SERVICE. USE DATA WITH CAUTION...ESPECIALLY DEWPOINT OBSERVATIONS. SCZ027-030-031-034>040-042>050-161500- ...SOUTH CAROLINA... CITY SKY/WX TMP DP RH WIND PRES REMARKS N CHARLESTON PTSUNNY 82 75 79 N7 30.06R WATERFRONT PRK N/A 82 N/A N/A N5 N/A FORT JOHNSON NOT AVBL MOUNT PLEASANT LGT RAIN 79 75 89 CALM 30.06S JOHNS ISLAND PTSUNNY 81 81 100 CALM 30.06S HX 91 PINOPOLIS N/A 81 73 78 NW3 29.98F MONCKS CORNER N/A 77 77 100 N5 30.06 SUMMERVILLE FAIR 77 77 100 NW3 30.07S BEAUFORT MCAS PTSUNNY 81 74 79 CALM 30.06S BEAUFORT ARPT CLOUDY 79 75 89 NW5 30.05F HILTON HEAD IS PTSUNNY 81 73 78 N6 30.07S GEORGETOWN NOT AVBL WALTERBORO MOSUNNY 79 N/A N/A NW3 30.07S ORANGEBURG CLOUDY 77 71 82 VRB3 30.07R BARNWELL CLOUDY 77 73 88 NW3 30.08S AIKEN PTSUNNY 73 73 100 W3 30.12R MANNING CLOUDY 79 79 100 CALM 30.06F KINGSTREE NOT AVBL COLUMBIA PTSUNNY 78 70 76 CALM 30.05F SUMTER PTSUNNY 76 69 79 W6 30.05S FLORENCE PTSUNNY 77 71 82 NW7 30.06S MYRTLE BEACH CLOUDY 75 72 88 NW7 30.05S N MYRTLE BEACH CLOUDY 78 72 81 NW6 30.05F $$ GAZ063-065-086>088-099>101-113>116-118-119-134-136>141-150-161500- ...GEORGIA... CITY SKY/WX TMP DP RH WIND PRES REMARKS SAVANNAH ARPT CLOUDY 79 73 82 N5 30.07S HUNTER AAF CLOUDY 77 75 94 W3 30.05S FORT STEWART CLOUDY 77 73 88 SW3 30.06R STATESBORO NOT AVBL SYLVANIA MOSUNNY 77 75 94 CALM 30.08F CLAXTON NOT AVBL THOMSON PTSUNNY 76 76 99 CALM 30.13R AUGUSTA-BUSH CLOUDY 76 72 87 W3 30.07R AUGUSTA-DANIEL PTSUNNY 77 72 84 CALM 30.09R SWAINSBORO CLOUDY 75 75 100 NW6 30.09S VIDALIA CLOUDY 73 73 100 NW3 30.08F ALMA CLOUDY 76 73 91 NW5 30.06F WAYCROSS CLOUDY 79 77 94 CALM 30.06F JESUP N/A 79 77 94 CALM 30.07S BRUNSWICK CLOUDY 75 72 88 NW3 30.08S SAINT SIMONS CLOUDY 76 73 91 NW6 30.07S $$ SCZ027-028-034-036>038-045-046-048>050-GAZ119-141-161500- ...LAKE AND SUPPLEMENTAL COASTAL OBSERVATIONS... STATION/POSITION TIME TEMP WIND PRES WAVE SWELL AIR SEA DIR/SP/G HT/PER HT/PER/DIR (UTC) (F) (DEG/KT/KT) (MB) (FT/S) (FT/S/D) UPR LAKE MARION NOT AVBL WINYAH BAY 1400 76 310/ 5 1018.0S LAKE MURRAY 1300 76 280/ 5/ 8 1017.3F ACE BASIN NERRS 1400 78 CALM 1018.0S FORT PULASKI 1300 76 N/A SAPELO ISLAND 1400 76 290/ 5 1018.0F $$ ANZ835-935-AMZ111-154-330-350-352-354-374-450-454-472-161500- ...C-MAN AND BUOY OBSERVATIONS... STATION/POSITION TIME TEMP WIND PRES WAVE SWELL AIR SEA DIR/SP/G HT/PER HT/PER/DIR (UTC) (F) (DEG/KT/KT) (MB) (FT/S) (FT/S/D) FOLLY BEACH CMAN 1400 80 360/ 1/ 2 1018.1R BUOY 41004 1400 81 83 310/ 2/ 4 1017.2R 2/12 2/12 BUOY 41008 1400 78 84 300/ 8/ 10 1018.3R 2/ 8 2/100/ 8 5E ST. MARYS GA 1400 84 N/A 2/ 8 FRYING PAN BUOY NOT AVBL BUOY 41025 1400 76 310/ 6/ 8 1017.3F 2/ 8 2/ 40/ 8 CAPE LOOKOUT NC 1400 76 60/ 4/ 4 1017.5R BUOY 41002 1256 81 83 300/ 6/ 8 1017.9F 3/13 3/ 70/13 BUOY 41010 1400 82 85 240/ 8/ 12 1018.4R 2/ 8 2/ 30/ 8 BUOY 41012 NOT AVBL ST AUGUSTINE FL 1400 81 270/ 8/ 10 1019.1F CAPERS NEARSHORE 1300 78 310/ 4/ 6 N/A FRIPP NEARSHORE NOT AVBL $$

USA.gov is the U.S. government's official web portal to all federal, state and local government web resources and services.